#timestamp,LO_Frequency,Hit,StdDev 
1552143615.7,286046994.6,N
1552143635.6,286046991.1,N
1552143655.4,286046991.1,N
1552143675.2,286046997.0,N
1552143695.1,286047000.0,N
1552143696.0,286047000.0,N
1552143715.8,286046999.2,N
1552143735.6,286046998.6,N
1552143755.5,286047000.4,N
1552143775.3,286046998.5,N
1552143795.2,286047001.0,N
1552143815.9,286046998.6,N
1552143835.7,286046998.3,N
1552143855.6,286047002.3,N
1552143875.4,286047001.7,N
1552143895.2,286047007.0,N
1552143915.1,286047013.8,N
1552143916.0,286047013.8,N
1552143935.8,286047012.7,N
1552143955.7,286047011.7,N
1552143975.5,286047005.8,N
1552143995.3,286047001.5,N
1552144015.2,286046996.9,N
1552144035.0,286046995.8,N
1552144035.9,286046995.8,N
1552144055.7,286046996.2,N
1552144075.6,286046989.9,N
1552144095.4,286046980.7,N
1552144115.3,286046977.7,Y
1552144135.1,286046982.9,P
1552144136.0,286046982.9,N
1552144155.8,286046983.6,N
1552144175.7,286046982.4,N
1552144195.5,286046980.6,N
1552144215.3,286046984.5,N
1552144235.2,286046990.4,N
1552144255.0,286046996.9,N
1552144255.9,286046996.9,N
1552144275.8,286047003.1,N
1552144295.6,286047007.0,N
1552144315.4,286047009.1,N
1552144335.3,286047007.5,N
1552144355.1,286047014.9,N
1552144375.8,286047014.9,N
1552144395.7,286047018.7,N
1552144415.5,286047023.0,N
1552144435.4,286047027.0,N
1552144455.2,286047036.1,N
1552144475.0,286047033.9,N
1552144475.9,286047033.9,N
1552144495.8,286047026.9,N
1552144515.6,286047037.5,N
1552144535.4,286047023.3,N
1552144555.3,286047022.8,N
1552144575.1,286047009.5,N
1552144595.9,286047006.5,N
1552144615.7,286047014.5,N
1552144635.5,286047016.2,N
1552144655.4,286047014.5,N
1552144675.2,286047018.5,N
1552144695.0,286047031.0,N
1552144696.0,286047031.0,N
1552144715.8,286047033.7,N
1552144735.6,286047044.4,N
1552144755.5,286047048.0,Y
1552144775.3,286047030.4,P
1552144795.1,286047031.5,P
1552144815.9,286047031.4,P
1552144835.7,286047020.7,Y
1552144855.6,286046987.5,P
1552144875.4,286046981.9,N
1552144895.2,286046979.7,N
1552144915.1,286046974.4,N
1552144916.0,286046974.4,N
1552144935.8,286046971.4,N
1552144955.6,286046965.7,N
1552144975.5,286046959.8,N
1552144995.3,286046958.0,N
1552145015.2,286046951.0,N
1552145035.9,286046948.5,N
1552145055.7,286046945.7,N
1552145075.6,286046941.1,N
1552145095.4,286046939.8,N
1552145115.2,286046940.2,N
1552145135.1,286046944.2,N
1552145136.0,286046944.2,N
1552145155.8,286046943.0,N
1552145175.7,286046940.2,N
1552145195.5,286046936.0,N
1552145215.3,286046938.5,N
1552145235.2,286046937.6,N
1552145255.0,286046932.7,Y
1552145255.9,286046932.7,P
1552145275.8,286046978.2,N
1552145295.6,286046979.4,N
1552145315.4,286046980.8,N
1552145335.3,286046980.6,N
1552145355.1,286046980.6,N
1552145375.9,286046981.4,N
1552145395.7,286046987.7,N
1552145415.5,286046986.0,N
1552145435.4,286046986.4,N
1552145455.2,286046982.5,N
1552145475.0,286046987.2,N
1552145475.9,286046987.2,N
1552145495.8,286046987.3,N
1552145515.6,286046982.0,N
1552145535.5,286046976.1,N
1552145555.3,286046972.9,N
1552145575.1,286046976.2,N
1552145595.9,286046976.6,N
1552145615.7,286046972.9,N
1552145635.5,286046974.1,N
1552145655.4,286046979.9,N
1552145675.2,286046970.9,N
1552145695.1,286046970.7,N
1552145696.0,286046970.7,N
1552145715.8,286046965.1,Y
1552145735.6,286046992.0,P
1552145755.5,286047009.8,N
1552145775.3,286047019.7,N
1552145795.1,286047025.6,N
1552145815.9,286047024.2,N
1552145835.7,286047018.9,N
1552145855.6,286047019.1,N
1552145875.4,286047015.1,N
1552145895.2,286047019.8,N
1552145915.1,286047012.8,N
1552145916.0,286047012.8,N
1552145935.8,286047012.4,N
1552145955.6,286047005.4,N
1552145975.5,286047010.3,N
1552145995.3,286047008.3,N
1552146015.2,286047003.0,N
1552146035.9,286046995.2,N
1552146055.7,286046994.0,N
1552146075.6,286047004.1,N
1552146095.4,286047015.3,N
1552146115.2,286047018.5,N
1552146135.1,286047014.5,N
1552146136.0,286047014.5,N
1552146155.8,286047015.2,N
1552146175.7,286047013.0,N
1552146195.5,286047011.1,N
1552146215.3,286047016.3,N
1552146235.2,286047025.1,N
1552146255.9,286047024.0,N
1552146275.7,286047017.6,N
1552146295.6,286047017.1,N
1552146315.4,286047010.9,N
1552146335.3,286047006.7,N
1552146355.1,286047001.8,N
1552146356.0,286047001.8,N
1552146375.8,286046996.5,N
1552146395.7,286046996.4,N
1552146415.5,286046999.0,N
1552146435.3,286047009.3,N
1552146455.2,286047001.2,N
1552146475.0,286046987.4,N
1552146475.9,286046987.4,N
1552146495.8,286046985.6,N
1552146515.6,286046991.6,N
1552146535.4,286046992.5,N
1552146555.3,286046992.4,N
1552146575.1,286046994.1,N
1552146595.9,286046999.3,N
1552146615.7,286046994.8,N
1552146635.5,286046996.4,N
1552146655.4,286046995.4,N
1552146675.2,286046999.0,N
1552146695.0,286047000.1,N
1552146695.9,286047000.1,N
1552146715.8,286047001.4,N
1552146735.6,286047003.1,N
1552146755.5,286046998.2,N
1552146775.3,286046998.5,N
1552146795.1,286047002.8,N
1552146815.9,286047000.9,N
1552146835.7,286047000.8,N
1552146855.5,286046998.3,N
1552146875.4,286046999.7,N
1552146895.2,286047003.5,N
1552146915.0,286047008.8,N
1552146916.0,286047008.8,N
1552146935.8,286047003.3,N
1552146955.6,286046997.7,N
1552146975.5,286046994.9,N
1552146995.3,286046994.6,N
1552147015.1,286046990.9,N
1552147035.9,286046984.0,N
1552147055.7,286046986.4,N
1552147075.6,286046986.2,N
1552147095.4,286046985.4,N
1552147115.2,286046980.5,Y
1552147135.1,286046986.5,P
1552147136.0,286046986.5,N
1552147155.8,286046986.0,N
1552147175.6,286046987.0,N
1552147195.5,286046987.0,Y
